This is the latest recevied weather packets stored in our database for station/object W5ITZ. If no packets are shown the sender has not sent any weather packets the latest 10 day(s).
| Time | Temp. | Humidity | Pressure | Rain* | Wind** | Luminosity | Snow |
|---|---|---|---|---|---|---|---|
| 1777142249 | 28.89° C | 76% | 1007.8 hPa | 0 mm | - | 351 W/m² | - |
| 1777141946 | 29.44° C | 75% | 1008 hPa | 0 mm | - | 271 W/m² | - |
| 1777141644 | 29.44° C | 72% | 1008 hPa | 0 mm | - | 277 W/m² | - |
| 1777141342 | 29.44° C | 73% | 1008 hPa | 0 mm | - | 552 W/m² | - |
| 1777141038 | 29.44° C | 75% | 1008.1 hPa | 0 mm | - | 659 W/m² | - |
| 1777140735 | 29.44° C | 73% | 1008 hPa | 0 mm | - | 858 W/m² | - |
| 1777140431 | 29.44° C | 74% | 1008 hPa | 0 mm | - | 697 W/m² | - |
| 1777140129 | 29.44° C | 72% | 1008 hPa | 0 mm | - | 884 W/m² | - |
| 1777139827 | 29.44° C | 74% | 1008.1 hPa | 0 mm | - | 754 W/m² | - |
| 1777139523 | 29.44° C | 75% | 1008.3 hPa | 0 mm | - | 848 W/m² | - |
| 1777139223 | 29.44° C | 73% | 1008.3 hPa | 0 mm | - | 853 W/m² | - |
| 1777138921 | 28.89° C | 79% | 1008.4 hPa | 0 mm | - | 560 W/m² | - |
| 1777138617 | 28.89° C | 76% | 1008.4 hPa | 0 mm | - | 825 W/m² | - |
| 1777138312 | 28.89° C | 77% | 1008.4 hPa | 0 mm | - | 899 W/m² | - |
| 1777138009 | 28.89° C | 77% | 1008.4 hPa | 0 mm | - | 876 W/m² | - |
| 1777137705 | 28.33° C | 77% | 1008.7 hPa | 0 mm | - | 883 W/m² | - |
| 1777137401 | 28.33° C | 78% | 1008.7 hPa | 0 mm | - | 556 W/m² | - |
| 1777137098 | 28.33° C | 78% | 1008.3 hPa | 0 mm | - | 479 W/m² | - |
| 1777136795 | 28.89° C | 78% | 1008.5 hPa | 0 mm | - | 349 W/m² | - |
| 1777136492 | 28.33° C | 78% | 1008.8 hPa | 0 mm | - | 589 W/m² | - |
| 1777136190 | 28.33° C | 80% | 1008.8 hPa | 0 mm | - | 686 W/m² | - |
| 1777135886 | 28.33° C | 79% | 1008.9 hPa | 0 mm | - | 402 W/m² | - |
| 1777135581 | 27.78° C | 80% | 1008.9 hPa | 0 mm | - | 817 W/m² | - |
| 1777135279 | 27.78° C | 82% | 1008.8 hPa | 0 mm | - | 857 W/m² | - |
| 1777134976 | 27.78° C | 83% | 1009.1 hPa | 0 mm | - | 442 W/m² | - |
* Rain latest hour (hover to see other rain measurements)
** Current wind speed in m/s (hover to see current wind gust speed)